Regional Weather Roundup
Issued by NWS Albany, NY

Home | Current Version | Previous Version | Text Only | Print | Product List | Glossary On
Versions: 1 2 3 4 5 6 7 8 9 10 11 12 13 14 15 16 17 18 19 20 21 22 23 24 25 26 27
000
ASUS41 KALY 290210
RWRALY

NEW YORK STATE HOURLY WEATHER ROUNDUP
NATIONAL WEATHER SERVICE ALBANY NY
1000 PM EDT SAT MAY 28 2016

NOTE: "FAIR" INDICATES FEW OR NO CLOUDS BELOW 12,000 FEET WITH NO
SIGNIFICANT WEATHER AND/OR NO OBSTRUCTIONS TO VISIBILITY.

NYZ032-033-038>043-046>054-057>066-NYZ062>081-082-084-290300-
EAST


CITY           SKY/WX    TMP DP  RH WIND       PRES   REMARKS
ALBANY         PTCLDY    78  62  57 CALM      30.07R
GLENS FALLS    CLEAR     72  67  84 CALM      30.08R
POUGHKEEPSIE   PTCLDY    77  68  73 CALM      30.09R
NEWBURGH       CLEAR     75  70  83 W8        30.13R
MONTGOMERY     CLOUDY    73  68  84 CALM      30.11R
WHITE PLAINS   PTCLDY    74  64  71 CALM      30.13R
ISLIP          MOCLDY    72  45  37 SW12      30.13R
NEW YORK CITY  PTCLDY    83  70  64 S8        30.10R
CENTRAL PARK   PTCLDY    80  63  55 CALM      30.14R
$$

NYZ005>009-017-018-044>046-055-056-290300-
CENTRAL


CITY           SKY/WX    TMP DP  RH WIND       PRES   REMARKS
FULTON         PTCLDY    73  67  81 CALM      30.07S
SYRACUSE       PTCLDY    74  65  73 SE3       30.07R
ROME           CLOUDY    73  66  78 CALM      30.09R
ELMIRA         CLOUDY    75  66  73 W5        30.11R
BINGHAMTON     CLEAR     77  63  61 SW7       30.15R
MONTICELLO     CLOUDY    70  64  83 CALM      30.18S
$$

NYZ026>034-041>043-087-290300-
NORTH


CITY           SKY/WX    TMP DP  RH WIND       PRES   REMARKS
WATERTOWN      CLEAR     68  64  87 CALM      30.06S
FORT DRUM      NOT AVBL
MASSENA        CLEAR     71  60  68 NE3       30.07R
SARANAC LAKE   PTCLDY    68  60  75 N3        30.14R
PLATTSBURGH    PTCLDY    70  62  76 CALM      30.08R
$$

NYZ001>004-010>016-019>021-085-290300-
WEST


CITY           SKY/WX    TMP DP  RH WIND       PRES   REMARKS
NIAGARA FALLS  CLOUDY    76  63  64 S6        30.06R
BUFFALO        CLOUDY    74  66  76 SE8       30.08R
DUNKIRK        CLOUDY    78  63  59 SE13      30.08R
JAMESTOWN      CLOUDY    72  66  83 SE10      30.17R
WELLSVILLE     LGT RAIN  70  62  76 W8        30.19S
ROCHESTER      MOCLDY    78  66  66 W6        30.09R
PENN YAN       CLOUDY    74  65  73 SW5       30.12R
$$

             KEY
       WCI = WIND CHILL INDEX
       VSB = VISIBILITY
       HX  = HEAT INDEX
$$




USA.gov is the U.S. government's official web portal to all federal, state and local government web resources and services.